www.pogodaiklimat.ru

Погода и климат >> Архив погоды >> Польша >> Клодзко


ПОГОДА в Клодзко

  • Прогноз погоды в Клодзко
  • Монитор погоды в Клодзко

АРХИВ ПОГОДЫ в Клодзко

Время (UTC), дата Ветер
(напр.,м/с)
 
Видим.   Явления Облачность Т
(С)
Тd
(С)
f
(%)
Тe
(С)
Тes
(С)
Комфортность P
(гПа)
Po
(гПа)
Тmin
(С)
Tmax
(С)
R
(мм)
R24
(мм)
S
(см)
16 10.07 СЗ 3 50 км 9/3 1500 м
[Cu med, cong Ac trans Ci fib]
+18.6 +7.7 49 +19 +20 1014.8 973.2
17 10.07 СЗ 2
{8}
50 км 6/3 1500 м
[Cu med, cong Ac trans Ci fib]
+18.4 +7.2 48 +19 +20 1014.6 973.0
18 10.07 СВ 5
{9}
50 км 5/3 1500 м
[Sc diur, vesp Ac trans Cs]
+15.4 +8.4 63 +14 +14 1015.4 973.3 +10.9 +19.4 0.4
19 10.07 СВ 1 50 км 9/1 1500 м
[Sc diur, vesp Ac trans]
+14.4 +8.8 69 +15 +15 1015.8 973.6
20 10.07 Ю 2 50 км 9/9 1500 м
[Sc]
+13.4 +9.1 75 +13 +13 1016.2 973.8
21 10.07 З 1 50 км слаб. ливневой дождь 9/3 1500 м
[Cb cap Ac trans]
+12.9 +9.5 80 +13 +13 1016.1 973.7
22 10.07 ЮЗ 2 50 км в посл. час ливневой дождь 9/1 1500 м
[Sc Ac trans]
+12.1 +10.0 87 +11 +11 1016.2 973.6
23 10.07 штиль 0 35 км в посл. час ливневой дождь 9/9 1440 м
[Cb cap]
+12.3 +10.2 87 +12 +12 1016.1 973.6
00 11.07 Ю 2 25 км в посл. час ливневой дождь 9/3 1000 м
[Cb cap Ac As]
+11.2 +10.4 95 +10 +10 1015.9 973.2 0.6
01 11.07 Ю 2 15 км 9/0
[Ac trans]
+10.9 +10.3 96 +9 +9 1015.6 972.9
02 11.07 Ю 1 15 км 3/0
[Ac trans]
+9.7 +8.6 93 +9 +9 1015.3 972.4
03 11.07 Ю 2 12 км 5/0
[Ac und]
+9.6 +9.1 97 +8 +8 1015.2 972.3
04 11.07 Ю 1 20 км в посл. час ливневой дождь 9/5 1500 м
[Cb cap Ac trans]
+9.9 +9.6 98 +9 +9 1015.4 972.5
05 11.07 ЮВ 2 25 км осадки на расстоянии 9/3 1500 м
[Cb cap Ac trans Ci fib]
+10.9 +10.4 97 +9 +10 1015.1 972.4
06 11.07 Ю 2 45 км {ливн. осадки} 6/1 1440 м
[Cu med, cong Ac trans Ci fib]
+13.3 +11.7 90 +13 +16 1014.7 972.4 +9.2 +15.4 0.6
07 11.07 В 1 50 км 5/3 1300 м
[Cu med, cong Ac lent Ci fib]
+16.3 +11.7 74 +17 +23 1014.1 972.2
08 11.07 СЗ 3 50 км 6/6 1020 м
[Cu med, cong Ac lent Ci sp]
+18.7 +9.2 54 +19 +23 1013.5 972.0
09 11.07 СЗ 3 50 км 6/6 1470 м
[Cu med, cong]
+19.2 +7.9 48 +20 +25 1013.4 972.0
10 11.07 СЗ 4 50 км 6/6 1500 м
[Cu med, cong]
+19.6 +5.3 39 +20 +25 1013.2 971.8
11 11.07 С 4 50 км 5/5 1500 м
[Cu med, cong]
+20.5 +6.1 39 +21 +27 комфорт 1012.7 971.5
12 11.07 СЗ 2
{10}
50 км 6/5 2000 м
[Cu med, cong Ci fib]
+22.1 +7.1 38 +23 +31 комфорт 1012.1 971.1
13 11.07 СЗ 2 50 км 6/5 2000 м
[Cu med, cong Ci fib]
+22.0 +5.0 33 +22 +29 комфорт 1011.7 970.7
14 11.07 СЗ 2
{8}
50 км 6/5 2000 м
[Cu med, cong Ci fib]
+22.4 +4.4 31 +23 +28 комфорт 1011.4 970.5
15 11.07 СВ 2
{8}
50 км 6/6 2000 м
[Cu med, cong Ci fib]
+21.8 +5.6 35 +22 +25 комфорт 1011.3 970.3
16 11.07 С 2 50 км 6/6 2000 м
[Cu med, cong Ci fib]
+21.8 +6.1 36 +22 +24 комфорт 1011.1 970.1
17 11.07 СВ 2 50 км 5/5 2000 м
[Sc diur, vesp Ci fib]
+22.1 +5.5 34 +23 +23 комфорт 1011.1 970.2
18 11.07 СВ 2
{8}
50 км 5/3 2000 м
[Sc diur, vesp Ac cuf Ci sp]
+21.0 +5.3 36 +22 +23 комфорт 1011.3 970.2 +13.3 +22.8
19 11.07 СВ 1 50 км 6/3 2000 м
[Sc diur, vesp Ac cuf Ci sp]
+19.3 +6.4 43 +21 +21 комфорт 1011.9 970.5
20 11.07 Ю 2 50 км 6/3 2000 м
[Sc diur, vesp Ac cuf Ci sp]
+14.5 +9.5 72 +14 +14 1012.9 970.8
21 11.07 Ю 2 50 км 8/5 2000 м
[Sc Ac cuf Ci sp]
+13.7 +9.3 75 +13 +13 1013.2 971.0
22 11.07 Ю 2 50 км 4/1 2000 м
[Sc Ac trans Ci sp]
+11.6 +8.8 83 +10 +10 1013.5 971.0
23 11.07 Ю 2 50 км 3/1 2000 м
[Sc Ac trans Ci sp]
+11.1 +7.4 78 +10 +10 1013.5 970.9
00 12.07 Ю 1 30 км 4/0
[Ac trans Cs]
+9.3 +8.2 93 +9 +9 1013.6 970.7
01 12.07 штиль 0 50 км 4/0
[Ac trans Cs]
+9.7 +8.0 89 +9 +9 1013.3 970.5
02 12.07 штиль 0 45 км 6/0
[Ac trans Cs]
+9.2 +7.3 88 +8 +8 1013.1 970.2
03 12.07 нст 1 35 км 6/0
[Ac trans Cs]
+7.3 +6.2 93 +6 +6 1013.4 970.2
04 12.07 ЮВ 1 35 км 9/0
[Ac cast Cs]
+8.5 +7.6 94 +8 +8 1013.3 970.3
05 12.07 СЗ 1 40 км 9/1 1500 м
[Sc Ac cast Cs]
+10.4 +8.8 90 +10 +11 1013.0 970.3
06 12.07 С 1 30 км 9/1 1000 м
[Sc Ac und Cs]
+14.1 +10.7 80 +14 +17 1012.3 970.2 +7.0 +21.0
07 12.07 Ю 1 30 км 9/1 1000 м
[Sc Ac As Cs]
+17.4 +11.9 70 +18 +23 1011.7 970.1
08 12.07 З 3 35 км 9/1 1000 м
[Sc Ac As Cs]
+18.5 +12.5 68 +19 +24 1011.4 969.9
09 12.07 З 4 35 км слаб. дождь 9/3 1350 м
[Sc Ac As]
+17.8 +13.1 74 +18 +20 1011.5 969.9
10 12.07 З 3 12 км слаб. ливневой дождь 9/6 1000 м
[Cb cap Ac As]
+16.3 +13.4 83 +16 +19 1011.8 970.0
11 12.07 СЗ 1 20 км слаб. ливневой дождь 9/6 600 м
[Cb cap Ac As]
+17.1 +13.8 81 +18 +22 1011.5 969.8
12 12.07 ЮЗ 1 35 км слаб. ливневой дождь 9/4 800 м
[Cb calv Ac trans]
+17.0 +13.7 81 +18 +24 1011.3 969.6 3
13 12.07 С 3 15 км слаб. ливневой дождь 9/4 720 м
[Cb calv Ac As]
+16.6 +14.6 88 +16 +19 1011.3 969.6
14 12.07 С 2 20 км слаб. ливневой дождь 9/5 600 м
[Cb cap Ac As]
+16.6 +14.2 86 +17 +19 1011.3 969.6
15 12.07 З 1 15 км слаб. ливневой дождь 9/9 600 м
[Cb cap]
+16.2 +14.9 92 +17 +18 1011.4 969.6
16 12.07 ЮЗ 1 15 км в посл. час ливневой дождь 9/9 600 м
[Cb cap]
+15.6 +14.6 94 +16 +17 1011.0 969.2
17 12.07 Ю 1 15 км в посл. час ливневой дождь 9/6 300 м
[Cb cap Ac trans Cs]
+15.7 +14.2 91 +16 +17 1010.7 968.9
18 12.07 Ю 2 30 км {ливн. осадки} 9/1 300 м
[Cb cap Ac trans Cs]
+15.3 +14.5 95 +15 +15 1010.9 969.0 +14.1 +18.9 6
19 12.07 Ю 1 4000 м туман на расстоянии 5/1 600 м
[Sc Ac trans Ci fib]
+14.3 +14.0 98 +15 +15 1010.9 968.9
20 12.07 ЮЗ 2 400 м туман местами 4/0
[Ac trans]
+13.5 +13.3 99 +13 +13 1011.0 968.9
21 12.07 ЮЗ 1 100 м туман ?/? +12.1 +12.1 100 +12 +12 1011.6 969.2
22 12.07 ЮЗ 1 300 м туман ?/? +12.3 +12.3 100 +12 +12 1011.3 969.0
23 12.07 З 1 400 м туман 9/4 1500 м
[Sc Ac As]
+11.9 +11.9 100 +12 +12 1011.2 968.8
00 13.07 ЮЗ 1 2500 м в посл. час туман 9/9 870 м
[Sc]
+11.4 +11.2 99 +11 +11 1011.2 968.7
01 13.07 З 1 600 м туман 9/9 1500 м
[Sc]
+11.2 +11.2 100 +11 +11 1010.9 968.4
02 13.07 штиль 0 300 м туман ?/? +11.0 +11.0 100 +10 +10 1010.7 968.2
03 13.07 З 1 300 м туман 10/10 1000 м
[Sc]
+11.0 +11.0 100 +11 +11 1010.9 968.4
04 13.07 С 1 600 м туман 10/10 180 м
[St]
+12.0 +12.0 100 +12 +12 1010.8 968.4
05 13.07 Ю 1 900 м слаб. ливневой дождь {туман} 10/9 570 м
[Cb cap]
+12.0 +12.0 100 +12 +12 1010.9 968.5
06 13.07 З 1 3000 м слаб. ливневой дождь {туман} туман 10/9 30 м
[Cb cap]
+12.4 +12.2 99 +12 +13 1011.1 968.8 +10.4 +15.4 0.3
07 13.07 ЮВ 1 3000 м слаб. ливневой дождь 9/9 60 м
[Cb cap]
+13.1 +12.8 98 +13 +14 1011.4 969.2
08 13.07 Ю 1 6000 м в посл. час ливневой дождь 9/8 60 м
[Sc Ac cuf]
+14.3 +13.7 96 +15 +16 1011.2 969.2
09 13.07 ЮЗ 1 8000 м дымка {ливн. осадки} 9/6 210 м
[Cb calv Ac cuf]
+16.2 +13.7 85 +17 +20 1010.8 969.0
10 13.07 ЮЗ 2 20 км осадки на расстоянии 9/9 400 м
[Cb cap]
+19.0 +14.5 75 +21 +22 комфорт 1009.8 968.5
11 13.07 ЮЗ 2 25 км слаб. ливневой дождь 9/6 630 м
[Cb cap Ac cuf Ci ing]
+19.2 +13.6 70 +21 +25 комфорт 1009.8 968.5
12 13.07 С 5
{14}
3000 м гроза, ливневой дождь 10/9 330 м
[Cb cap]
+13.8 +12.5 92 +12 +12 1011.6 969.5 12
13 13.07 Ю 2
{8}
10 км слаб. ливневой дождь, в посл. час гроза 9/8 1230 м
[Cb cap Ac cuf]
+14.3 +14.0 98 +14 +16 1011.5 969.4
14 13.07 ЮВ 3 20 км в посл. час ливневой дождь 9/8 210 м
[Cb cap Ac cuf]
+16.5 +14.5 88 +16 +17 1011.0 969.3
15 13.07 ЮВ 2
{8}
6000 м ливневой дождь {гроза} 9/9 420 м
[Cb cap]
+15.7 +14.4 92 +16 +16 1011.1 969.3
16 13.07 ЮЗ 1 25 км слаб. ливневой дождь 9/9 240 м
[Cb cap]
+15.9 +14.3 90 +17 +17 1011.0 969.2
17 13.07 З 1 10 км в посл. час ливневой дождь 9/8 120 м
[Cb cap Ac cuf Ci ing]
+15.6 +14.6 94 +16 +16 1011.4 969.5
18 13.07 С 1
{8}
12 км {гроза, ливн. осадки} 9/9 630 м
[Cb cap]
+15.8 +15.2 96 +16 +16 1011.9 970.0 +12.4 +20.1 20
19 13.07 СЗ 2 12 км в посл. час ливневой дождь 9/9 600 м
[Cb cap]
+15.0 +14.0 94 +15 +15 1012.5 970.5
20 13.07 СЗ 1 15 км 9/1 600 м
[Sc Ac trans]
+14.0 +13.4 96 +14 +14 1013.0 970.8
21 13.07 З 1 6000 м дымка {ливн. осадки} 6/0
[Ac trans Cs]
+13.5 +13.0 97 +14 +14 1013.4 971.2
22 13.07 СВ 1 3200 м дымка 5/0
[Ac trans]
+13.0 +12.7 98 +13 +13 1013.8 971.5
23 13.07 С 1 9000 м в посл. час туман 9/9 900 м
[Sc]
+13.2 +12.9 98 +13 +13 1014.2 971.9
00 14.07 С 1 9000 м дымка {ливн. осадки, туман} 9/9 1230 м
[Sc]
+12.8 +12.3 97 +13 +13 1014.3 971.9 0.4
01 14.07 штиль 0 3200 м дымка 3/3 1260 м
[Sc]
+11.5 +11.0 97 +11 +11 1014.5 971.9
02 14.07 ЮЗ 2 900 м туман местами 1/1 1000 м
[Sc]
+10.3 +10.1 99 +9 +9 1014.7 971.9
03 14.07 Ю 1 1000 м в посл. час туман туман 3/3 1000 м
[Sc Ci fib]
+9.2 +8.9 98 +8 +8 1014.7 971.8
04 14.07 ЮВ 1 100 м туман местами 3/1 1000 м
[Sc Ac trans Ci fib]
+9.8 +9.8 100 +9 +9 1014.6 971.8
05 14.07 Ю 1 700 м туман 9/4 30 м
[Cb cap Ac trans]
+11.4 +11.4 100 +11 +12 1014.5 971.9
06 14.07 Ю 1 3000 м в посл. час туман 8/3 120 м
[Cu med, cong Ac trans Ci sp]
+13.0 +13.0 100 +13 +15 1014.5 972.1 +8.8 +15.8 0.4
07 14.07 С 1 8000 м дымка 9/3 300 м
[Cu med, cong Ac trans Cs]
+15.1 +13.8 92 +16 +19 1014.5 972.4
08 14.07 С 2 10 км осадки на расстоянии 9/9 570 м
[Cb cap]
+16.4 +13.5 83 +17 +18 1014.5 972.6
09 14.07 СВ 2 12 км осадки на расстоянии 9/9 1140 м
[Cb cap]
+16.5 +13.8 84 +17 +18 1014.7 972.8
10 14.07 С 4 10 км осадки на расстоянии 9/9 1000 м
[Cb cap]
+16.0 +13.1 83 +15 +16 1015.3 973.3
11 14.07 СВ 2 15 км в посл. час ливневой дождь 9/6 1000 м
[Cb calv Ac trans]
+16.2 +12.7 80 +16 +20 1015.1 973.2
12 14.07 СВ 2 15 км слаб. ливневой дождь 9/8 800 м
[Cb cap Ac trans]
+16.3 +12.6 79 +16 +19 1014.9 973.0 0.0
13 14.07 С 4-9
{9}
35 км 6/5 1000 м
[Cu med, cong Ac trans Ci fib]
+18.0 +10.6 62 +18 +22 1014.3 972.7
14 14.07 С 4 35 км 6/6 1140 м
[Cu med, cong Ci fib]
+19.9 +12.4 62 +22 +24 комфорт 1013.8 972.4
15 14.07 С 2
{9}
40 км 5/5 1230 м
[Cu med, cong Ci fib]
+19.6 +10.8 57 +21 +25 комфорт 1013.5 972.1
16 14.07 С 3 40 км 5/5 1000 м
[Cb cap Ci fib]
+20.3 +10.7 54 +22 +24 комфорт 1013.2 971.9
17 14.07 СВ 2 15 км слаб. ливневой дождь 8/6 1000 м
[Cb cap Ci fib]
+19.0 +11.1 60 +20 +21 1013.4 971.9
18 14.07 СЗ 4
{9}
50 км осадки на расстоянии {ливн. осадки} 5/4 1000 м
[Cb cap Ac cuf]
+17.0 +11.3 69 +17 +17 1014.1 972.3 +13.0 +20.4 0.0
19 14.07 СВ 2 50 км осадки на расстоянии 5/3 1300 м
[Cb cap Ac cuf Ci]
+15.7 +10.9 73 +16 +16 1015.3 973.3
20 14.07 З 2 50 км 6/4 1000 м
[Sc Ac lent Ci fib]
+13.2 +10.7 85 +12 +12 1016.2 973.8
21 14.07 З 1 50 км 6/3 1000 м
[Sc Ac und Ci fib]
+13.1 +10.6 85 +13 +13 1016.1 973.7
22 14.07 С 1 50 км 8/4 1000 м
[Sc Ac trans]
+12.8 +10.7 87 +13 +13 1016.3 973.8
23 14.07 Ю 1 35 км 3/1 1000 м
[Sc Ac As]
+12.1 +10.7 91 +12 +12 1016.5 973.9
00 15.07 Ю 2 20 км 3/0
[Ac trans]
+10.8 +9.9 94 +9 +9 1016.7 973.9
01 15.07 ЮВ 2 10 км 1/0
[Ac trans]
+9.9 +9.6 98 +8 +8 1016.5 973.6
02 15.07 ЮВ 2 12 км 1/1 960 м
[Sc Ac lent Ci fib]
+9.4 +8.9 97 +8 +8 1016.4 973.4
03 15.07 Ю 2 10 км 9/9 600 м
[Sc]
+9.6 +9.5 99 +8 +8 1016.3 973.4
04 15.07 Ю 1 17 км 4/4 570 м
[Sc]
+10.6 +10.3 98 +10 +10 1016.2 973.4
05 15.07 ЮЗ 1 4000 м туман на расстоянии 9/9 500 м
[Sc]
+11.5 +11.0 97 +11 +11 1016.2 973.5
06 15.07 ЮВ 1 20 км 9/9 480 м
[Sc]
+13.3 +12.4 94 +13 +14 1016.2 973.8 +9.1 +17.0
07 15.07 20 км 9/8 700 м
[Cu med, cong Ac cast]
+15.3 +12.2 82 1016.1 974.0
08 15.07 С 2 25 км 8/6 1000 м
[Cu med, cong Ac trans]
+17.3 +11.3 68 +18 +21 1015.8 974.0
09 15.07 СВ 2 30 км 8/8 900 м
[Cb calv]
+18.2 +11.3 64 +19 +22 1015.6 973.9
10 15.07 СВ 3 35 км осадки на расстоянии 6/6 900 м
[Cb cap]
+19.3 +12.1 63 +21 +26 комфорт 1015.1 973.6
11 15.07 Ю 1 40 км 6/6 1200 м
[Cb calv]
+20.2 +10.9 55 +23 +31 комфорт 1014.5 973.2
12 15.07 С 3
{7}
40 км 9/9 1300 м
[Cb calv]
+19.7 +10.9 57 +21 +23 комфорт 1014.6 973.2
13 15.07 СВ 3 35 км слаб. ливневой дождь 8/6 870 м
[Cb cap Ci sp]
+20.7 +10.5 52 +23 +27 комфорт 1014.3 973.0
14 15.07 С 3
{8}
30 км в посл. час ливневой дождь 8/6 600 м
[Cb cap Ac cuf Ci sp]
+20.5 +10.6 53 +23 +25 комфорт 1014.2 972.9
15 15.07 СВ 2
{8}
25 км осадки на расстоянии {ливн. осадки} 8/6 1380 м
[Cb cap Ac cuf Ci fib]
+20.4 +10.2 52 +23 +25 комфорт 1014.0 972.7
16 15.07 Ю 5 40 км 9/8 1470 м
[Cu med, cong Ac cuf]
+18.2 +13.3 73 +18 +18 1014.3 972.7
17 15.07 ЮВ 4 50 км 8/6 1470 м
[Cu med, cong Ac cuf]
+16.9 +12.8 77 +16 +17 1014.5 972.7
18 15.07 Ю 3
{8}
50 км {ливн. осадки} 8/8 1440 м
[Cu med, cong Ci fib]
+16.1 +12.8 81 +16 +16 1014.5 972.6 +13.3 +21.3 0.0
19 15.07 Ю 2 40 км 8/6 1350 м
[Sc diur, vesp Ci fib]
+14.4 +12.3 87 +14 +14 1015.0 972.8
20 15.07 ЮВ 3 35 км 4/3 1500 м
[Sc diur, vesp Ci fib]
+13.3 +11.9 91 +12 +12 1015.5 973.1
21 15.07 Ю 1 25 км 3/1 1000 м
[Sc Ci fib]
+12.9 +11.5 91 +13 +13 1015.9 973.5
22 15.07 В 1 35 км 3/0
[Ci]
+13.1 +10.5 84 +13 +13 1016.0 973.6
23 15.07 ЮЗ 1 15 км 3/1 1000 м
[Sc Ci fib]
+11.0 +10.5 97 +11 +11 1016.2 973.5
00 16.07 СЗ 1 12 км местами туман поземный 6/6 600 м
[Sc Ci fib]
+11.3 +10.7 96 +11 +11 1016.3 973.6
01 16.07 ЮЗ 1 8000 м дымка 9/9 800 м
[Sc]
+11.1 +10.6 97 +11 +11 1016.2 973.5
02 16.07 Ю 2 8000 м дымка 9/9 870 м
[Sc]
+11.3 +11.0 98 +10 +10 1015.9 973.2
03 16.07 Ю 2 12 км 9/9 870 м
[Sc]
+10.7 +10.5 99 +9 +9 1015.8 973.0
04 16.07 Ю 2 1000 м 9/9 960 м
[Sc]
+10.9 +10.6 98 +9 +9 1015.6 972.9
05 16.07 Ю 3 10 км 9/9 1200 м
[Sc]
+12.0 +11.2 95 +10 +10 1015.7 973.1
06 16.07 Ю 2 15 км 9/9 930 м
[Sc]
+13.0 +11.2 89 +12 +13 1015.3 972.9 +10.4 +16.1
07 16.07 ЮЗ 3 15 км 10/9 1000 м
[Sc]
+14.4 +10.4 77 +13 +14 1014.8 972.6
08 16.07 З 3
{8}
15 км 9/9 930 м
[Sc]
+15.2 +9.1 67 +15 +15 1014.6 972.5
09 16.07 З 5-10
{10}
20 км 9/9 1050 м
[Sc]
+16.3 +8.3 59 +15 +16 1014.2 972.3
10 16.07 З 6
{9}
20 км 9/9 1200 м
[Sc]
+16.5 +8.9 61 +15 +16 1014.3 972.4
11 16.07 З 6
{10}
20 км 9/9 1200 м
[Sc]
+18.3 +9.1 55 +18 +19 1013.7 972.1
12 16.07 З 4-9
{10}
25 км 9/9 1200 м
[Sc]
+17.6 +8.7 56 +17 +18 1013.7 972.0
13 16.07 СЗ 3 25 км 9/9 1000 м
[Cu Sc]
+17.4 +9.6 60 +17 +19 1014.0 972.3
14 16.07 СЗ 4-10
{10}
35 км 8/8 1000 м
[Cu Sc]
+17.5 +8.9 57 +17 +19 1014.3 972.6
15 16.07 СЗ 3-8
{10}
35 км 6/6 1000 м
[Cu Sc]
+18.8 +8.4 51 +20 +22 1014.0 972.5
16 16.07 СЗ 3
{9}
45 км 5/5 1000 м
[Sc]
+18.5 +8.7 53 +19 +21 1013.9 972.3
17 16.07 С 2 40 км 4/4 1380 м
[Sc Ac trans]
+18.4 +8.4 52 +19 +20 1013.9 972.3
18 16.07 С 2
{10}
50 км 3/3 1000 м
[Sc]
+16.7 +8.6 59 +17 +17 1014.1 972.3 +13.0 +19.2
19 16.07 С 3 50 км 8/5 1000 м
[Sc Ac cast]
+15.0 +8.5 65 +14 +14 1014.7 972.6
20 16.07 СЗ 1 50 км 8/5 1320 м
[Sc Ac trans]
+14.5 +8.7 68 +15 +15 1015.2 973.0
21 16.07 Ю 1 50 км 5/5 1500 м
[Sc]
+12.9 +9.2 78 +13 +13 1015.1 972.7
22 16.07 СЗ 1 50 км 1/1 1500 м
[Sc]
+11.4 +8.4 82 +11 +11 1015.4 972.8
23 16.07 ЮВ 1 50 км 1/1 1500 м
[Sc]
+10.8 +8.7 87 +10 +10 1015.7 973.0
00 17.07 ЮЗ 2 40 км 6/6 1500 м
[Sc]
+9.4 +8.2 92 +8 +8 1016.0 973.0
01 17.07 ЮВ 1 35 км 4/4 1380 м
[Sc]
+8.7 +7.9 95 +8 +8 1015.9 972.8
02 17.07 Ю 2 35 км 3/3 1500 м
[Sc]
+8.6 +7.7 94 +7 +7 1015.6 972.5
03 17.07 ЮЗ 2 35 км туман на расстоянии 6/6 630 м
[Sc Ci fib]
+8.8 +8.0 95 +7 +7 1015.6 972.6
04 17.07 Ю 2 25 км 3/3 600 м
[Sc Ci fib]
+9.0 +8.2 95 +7 +7 1015.6 972.6
05 17.07 Ю 2 30 км 4/3 800 м
[Cu Sc Ci sp]
+9.8 +8.9 94 +8 +9 1015.5 972.6
06 17.07 ЮВ 2 30 км 6/1 600 м
[Cu med, cong Cs]
+13.0 +10.7 86 +12 +16 1014.9 972.5 +8.1 +16.7
07 17.07 С 2 30 км 9/4 600 м
[Cu med, cong Ac trans Cs]
+15.9 +11.7 76 +16 +19 1014.3 972.4
08 17.07 С 5 35 км 8/4 800 м
[Cu med, cong Cs]
+18.1 +9.7 58 +18 +21 1013.8 972.2
09 17.07 СЗ 4-9
{9}
45 км 6/5 1020 м
[Cu med, cong Ci fib]
+18.8 +8.4 51 +19 +24 1013.7 972.2
10 17.07 С 4 45 км 9/6 1230 м
[Cu med, cong Ci fib]
+19.9 +8.9 49 +21 +25 комфорт 1013.3 972.0
11 17.07 С 4 50 км 8/4 1500 м
[Cu med, cong Cs]
+20.2 +7.9 45 +21 +27 комфорт 1013.2 971.9
12 17.07 СЗ 3
{9}
45 км 8/5 1500 м
[Cu med, cong Cs]
+20.9 +8.8 46 +23 +29 комфорт 1012.9 971.7
13 17.07 С 4 45 км 8/6 1500 м
[Cu med, cong Cs]
+21.2 +8.8 45 +22 +26 комфорт 1012.5 971.4
14 17.07 СЗ 2 45 км 9/6 1500 м
[Cu med, cong Cs]
+21.9 +7.7 40 +23 +26 комфорт 1012.2 971.2
15 17.07 СВ 2 45 км 9/5 1500 м
[Cu med, cong Cs]
+21.4 +9.3 46 +23 +26 комфорт 1012.3 971.2
16 17.07 В 3 45 км 9/5 1500 м
[Sc diur, vesp Cs]
+21.2 +8.8 45 +22 +24 комфорт 1012.2 971.1

 

Местоположение метеостанции Клодзко (Польша): широта 50.43 долгота 16.62 высота над уровнем моря 357 м.

В архиве по умолчанию представлена погода в Клодзко за последнюю неделю. Архивные данные за месяц целиком и за предыдущие месяцы, начиная с января 2011 года, Вы можете получить, выбрав интересующий диапазон дат из раскрывающегося списка и нажав кнопку "Ввод!".


*Определитесь, кто Вы:
робот инопланетянин человек

Внимание! Время в таблицах - всемирное. Для получения местного времени необходимо прибавить поправку, которая равна 1 ч.

Смотрите также архив погоды в соседних городах и на ближайших метеорологических станциях:

Погода в Поломе (Чехия) (23 км)
Погода на Шераке (Чехия) (45 км)
Погода в Усти-над-Орлици (Чехия) (52 км)
Погода в Пец-под-Снежкой (Чехия) (67 км)
Погода на Снежке (Чехия) (71 км)
Погода на Снежке (Польша) (71 км)
Погода во Вроцлаве (Польша) (77 км)
Погода в Еленя-Гуре (Польша) (78 км)
Погода в Пардубице (Чехия) (78 км)
Погода в Свраточе (Чехия) (89 км)

Пояснения к столбцам:

Ветер - указаны скорость ветра в м/с - средняя за 10 мин, порывы в срок и между сроками (в фигурных скобках) и направление, откуда дует ветер: С - северный, СВ - северо-восточный, В - восточный, ЮВ - юго-восточный, Ю - южный, ЮЗ - юго-западный, З - западный, СЗ - северо-западный.
Видимость - горизонтальная дальность видимости в метрах или километрах. При видимости от 1 до 10 км при отсутствии осадков обычно наблюдается дымка, при ухудшении видимости до 1 км и менее - туман. В сухую погоду видимость может ухудшаться дымом, пылью или мглою.
Явления - указаны атмосферные явления, наблюдавшиеся в срок или в последний час перед сроком; фигурными скобками обозначены явления, наблюдавшиеся между сроками (за 1-3 часа до срока); квадратными скобками обозначены град или гололедные отложения с указанием их диаметра в мм.
Облачность - указаны через наклонную черту общая и нижняя облачность в баллах и высота нижней границы облаков в метрах; квадратными скобками обозначены формы облаков: Ci - перистые, Cs - перисто-слоистые, Cc - перисто-кучевые, Ac - высококучевые, As - высокослоистые, Sc - слоисто-кучевые, Ns - слоисто-дождевые, Cu - кучевые, Cb - кучево-дождевые. Подробнее классификацию облаков см. в Атласе облаков (PDF).
T - Температура воздуха - температура, измеренная на высоте 2 м над землей.
Td - Температура точки росы - температура, при понижении до которой содержащийся в воздухе водяной пар достигнет насыщения.
f - Относительная влажность воздуха - влажноcть воздуха, измеренная на высоте 2 м над землей.
Te - Эффективная температура - температура, которую ощущает одетый по сезону человек в тени. Характеристика душности погоды. При расчете учитывается влияние влажности воздуха и скорости ветра на теплоощущения человека.
Tes - Эффективная температура на солнце - температура, которую ощущает человек, с поправкой на солнечный нагрев. Характеристика знойности погоды. Зависит от высоты солнца над горизонтом, облачности и скорости ветра. Ночью, в пасмурную погоду, а также при ветре 12 м/с и более поправка равна нулю.
P - Атмосферное давление - приведенное к уровню моря атмосферное давление.
Po - Атмосферное давление - измеренное на уровне метеостанции атмосферное давление.
Tmin - Минимальная температура - минимум температуры воздуха на высоте 2 м над землей.
Tmax - Максимальная температура - максимум температуры воздуха на высоте 2 м над землей.
R - Количество осадков - Количество выпавших осадков за период времени, мм. При наведении курсора мыши на число - период времени, за который выпало указанное количество осадков.
R24 - Количество осадков - Количество выпавших осадков за 24 часа, мм.
S - Снежный покров - Высота снежного покрова, см. При наведении курсора мыши на число - состояние снежного покрова и степень покрытия местности в баллах.